Location: Unspecified
(22.6800°N, 112.2000°E)
Time: 14:13:36
(UTC+08:00)

S-56A Canister/Altair - Pass Details

Date: 02 August 2021
Orbit: 632 x 2500 km, 38.9° (Epoch: 24 September)

Event Time Altitude Azimuth Distance (km) Brightness Sun altitude
Rises 23:07:16 0° 294° (WNW) 5,912 12.6 -44.1°
Reaches altitude 10° 23:12:02 10° 286° (WNW) 4,683 11.9 -44.6°
Enters shadow 23:19:35 28° 254° (WSW) 3,020 10.5 -45.5°
Maximum altitude 23:22:18 31° 231° (SW) 2,706 - -45.7°
Drops below altitude 10° 23:29:52 10° 173° (S) 3,390 - -46.5°
Sets 23:32:45 0° 162° (SSE) 4,104 - -46.7°
